Weather History for Ambler, AK

Change the Weather History Date:

Sunday, March 3, 2013

  Actual Average Record
Temperature  
Mean Temperature 8 °F -  
Max Temperature 17 °F 8 °F 33 °F (2003)
Min Temperature 0 °F -1 °F -52 °F (1992)
Degree Days  
Heating Degree Days 56    
Moisture  
Dew Point -2 °F    
Average Humidity 60    
Maximum Humidity 72    
Minimum Humidity 49    
Precipitation  
Precipitation 0.00 in - - ()
Sea Level Pressure  
Sea Level Pressure 30.29 in    
Wind  
Wind Speed 8 mph (NE)    
Max Wind Speed 12 mph    
Max Gust Speed 21 mph    
Visibility 10 miles    
Events      
Averages and records for this station are not official NWS values.
T = Trace of Precipitation, MM = Missing Value Source: NWS Daily Summary

Daily Weather History Graph

Daily Weather History Graph

Search for Another Location

Airport:

Trip Planner

Search our weather history database for the weather conditions in past years. The results will help you decide how hot, cold, wet, or windy it might be!

Date:

Astronomy

Mar. 03, 2013 Rise Set
Actual Time 8:37 AM AKST 6:50 PM AKST
Civil Twilight 7:43 AM AKST 7:44 PM AKST
Nautical Twilight 6:41 AM AKST 8:46 PM AKST
Astronomical Twilight 5:36 AM AKST 9:52 PM AKST
Moon 3:50 AM AKST (3/3) 8:48 AM AKST (3/3)
Length of Visible Light 12h 00m
Length of Day
10h 12m
Waning Gibbous, 62% of the Moon is Illuminated
Mar 3
Waning Gibbous
Mar 4
Last Quarter
Mar 11
New
Mar 19
First Quarter
Mar 27
Full

Hourly Weather History & Observations

Time (AKST) Temp. Windchill Dew Point Humidity Pressure Visibility Wind Dir Wind Speed Gust Speed Precip Events Conditions
12:16 AM 1.4 °F -15.3 °F -9.4 °F 61% 30.22 in 10.0 mi NNE 11.5 mph - N/A   Clear
12:36 AM 1.4 °F -13.5 °F -9.4 °F 61% 30.23 in 10.0 mi NNE 9.2 mph - N/A   Clear
12:56 AM -0.4 °F -12.0 °F -11.2 °F 60% 30.23 in 10.0 mi NNE 5.8 mph - N/A   Clear
1:16 AM 1.4 °F -11.3 °F -7.6 °F 66% 30.23 in 10.0 mi NNE 6.9 mph - N/A   Clear
1:36 AM 1.4 °F -13.5 °F -9.4 °F 61% 30.23 in 10.0 mi NNE 9.2 mph - N/A   Clear
1:56 AM 1.4 °F -13.5 °F -9.4 °F 61% 30.24 in 10.0 mi NNE 9.2 mph - N/A   Clear
2:16 AM 1.4 °F -12.5 °F -9.4 °F 61% 30.25 in 10.0 mi NNE 8.1 mph - N/A   Clear
2:36 AM 1.4 °F -12.5 °F -7.6 °F 66% 30.25 in 10.0 mi NNE 8.1 mph - N/A   Clear
2:56 AM 1.4 °F -11.3 °F -11.2 °F 56% 30.25 in 10.0 mi NNE 6.9 mph - N/A   Clear
3:16 AM 1.4 °F -12.5 °F -9.4 °F 61% 30.25 in 10.0 mi NE 8.1 mph - N/A   Clear
3:36 AM 1.4 °F -12.5 °F -9.4 °F 61% 30.25 in 10.0 mi NE 8.1 mph - N/A   Clear
3:56 AM -0.4 °F -13.4 °F -9.4 °F 66% 30.25 in 10.0 mi NNE 6.9 mph - N/A   Clear
4:16 AM -0.4 °F -14.7 °F -9.4 °F 66% 30.26 in 10.0 mi NNE 8.1 mph - N/A   Clear
4:36 AM -0.4 °F -15.7 °F -9.4 °F 66% 30.26 in 10.0 mi NNE 9.2 mph - N/A   Clear
4:56 AM -0.4 °F -15.7 °F -11.2 °F 60% 30.26 in 10.0 mi NNE 9.2 mph - N/A   Clear
5:16 AM -0.4 °F -16.7 °F -9.4 °F 66% 30.26 in 10.0 mi NNE 10.4 mph 16.1 mph N/A   Clear
5:36 AM -0.4 °F -16.7 °F -9.4 °F 66% 30.26 in 10.0 mi NNE 10.4 mph 17.3 mph N/A   Clear
5:56 AM -0.4 °F -15.7 °F -11.2 °F 60% 30.27 in 10.0 mi NNE 9.2 mph - N/A   Clear
6:16 AM -0.4 °F -14.7 °F -9.4 °F 66% 30.28 in 10.0 mi NNE 8.1 mph - N/A   Clear
6:36 AM -0.4 °F -14.7 °F -9.4 °F 66% 30.27 in 10.0 mi North 8.1 mph - N/A   Clear
6:56 AM 1.4 °F -12.5 °F -7.6 °F 66% 30.26 in 10.0 mi NNE 8.1 mph - N/A   Clear
7:16 AM -0.4 °F -15.7 °F -11.2 °F 60% 30.26 in 10.0 mi NNE 9.2 mph - N/A   Clear
7:36 AM 1.4 °F -11.3 °F -7.6 °F 66% 30.26 in 10.0 mi NNE 6.9 mph - N/A   Clear
7:56 AM 1.4 °F -12.5 °F -9.4 °F 61% 30.26 in 10.0 mi North 8.1 mph - N/A   Clear
8:16 AM 1.4 °F -13.5 °F -5.8 °F 72% 30.26 in 10.0 mi NNE 9.2 mph - N/A   Clear
8:36 AM 3.2 °F -9.1 °F -9.4 °F 56% 30.26 in 10.0 mi NNE 6.9 mph - N/A   Clear
8:56 AM 1.4 °F -11.3 °F -5.8 °F 72% 30.27 in 10.0 mi NNE 6.9 mph - N/A   Clear
9:16 AM 1.4 °F -12.5 °F -9.4 °F 61% 30.27 in 10.0 mi NNE 8.1 mph - N/A   Clear
9:36 AM 5.0 °F -8.1 °F -2.2 °F 72% 30.27 in 10.0 mi NNE 8.1 mph - N/A   Clear
9:56 AM 6.8 °F -4.8 °F -5.8 °F 56% 30.28 in 10.0 mi NE 6.9 mph - N/A   Clear
10:16 AM 6.8 °F -5.9 °F -0.4 °F 72% 30.28 in 10.0 mi NNE 8.1 mph - N/A   Clear
10:36 AM 8.6 °F -3.7 °F -2.2 °F 62% 30.29 in 10.0 mi NE 8.1 mph - N/A   Clear
10:56 AM 8.6 °F -2.6 °F -2.2 °F 62% 30.28 in 10.0 mi NE 6.9 mph - N/A   Clear
11:16 AM 8.6 °F -3.7 °F -2.2 °F 62% 30.28 in 10.0 mi NE 8.1 mph - N/A   Clear
11:36 AM 10.4 °F -3.3 °F -0.4 °F 62% 30.28 in 10.0 mi NE 10.4 mph 16.1 mph N/A   Clear
11:56 AM 10.4 °F -0.4 °F -0.4 °F 62% 30.29 in 10.0 mi NE 6.9 mph - N/A   Clear
12:16 PM 12.2 °F 0.7 °F 1.4 °F 62% 30.28 in 10.0 mi NE 8.1 mph - N/A   Clear
12:36 PM 12.2 °F 2.9 °F 1.4 °F 62% 30.29 in 10.0 mi NE 5.8 mph - N/A   Clear
12:56 PM 14.0 °F 6.5 °F 1.4 °F 57% 30.30 in 10.0 mi ENE 4.6 mph - N/A   Clear
1:16 PM 15.8 °F 8.6 °F 1.4 °F 53% 30.30 in 10.0 mi ENE 4.6 mph - N/A   Clear
1:36 PM 15.8 °F 6.1 °F 1.4 °F 53% 30.29 in 10.0 mi NE 6.9 mph - N/A   Clear
1:56 PM 17.6 °F 10.7 °F 3.2 °F 53% 30.29 in 10.0 mi NNE 4.6 mph - N/A   Clear
2:16 PM 17.6 °F - 3.2 °F 53% 30.29 in 10.0 mi Calm Calm - N/A   Clear
2:36 PM 17.6 °F 12.3 °F 3.2 °F 53% 30.28 in 10.0 mi SSW 3.5 mph - N/A   Clear
2:56 PM 17.6 °F - 1.4 °F 49% 30.29 in 10.0 mi Calm Calm - N/A   Clear
3:16 PM 17.6 °F 10.7 °F 3.2 °F 53% 30.29 in 10.0 mi SSW 4.6 mph - N/A   Clear
3:36 PM 17.6 °F 9.3 °F 1.4 °F 49% 30.29 in 10.0 mi South 5.8 mph - N/A   Clear
3:56 PM 17.6 °F 8.2 °F 1.4 °F 49% 30.29 in 10.0 mi SE 6.9 mph - N/A   Clear
4:16 PM 17.6 °F 8.2 °F 3.2 °F 53% 30.30 in 10.0 mi SE 6.9 mph - N/A   Clear
4:36 PM 17.6 °F 8.2 °F 3.2 °F 53% 30.30 in 10.0 mi SE 6.9 mph - N/A   Clear
4:56 PM 17.6 °F 8.2 °F 1.4 °F 49% 30.31 in 10.0 mi ESE 6.9 mph - N/A   Clear
5:16 PM 15.8 °F 5.1 °F 1.4 °F 53% 30.30 in 10.0 mi SE 8.1 mph - N/A   Clear
5:36 PM 15.8 °F 4.2 °F 3.2 °F 58% 30.30 in 10.0 mi SE 9.2 mph - N/A   Clear
5:56 PM 15.8 °F 2.7 °F 3.2 °F 58% 30.31 in 10.0 mi SE 11.5 mph 20.7 mph N/A   Clear
6:16 PM 15.8 °F 7.2 °F 1.4 °F 53% 30.31 in 10.0 mi SE 5.8 mph 16.1 mph N/A   Clear
6:36 PM 15.8 °F 5.1 °F 3.2 °F 58% 30.31 in 10.0 mi SE 8.1 mph - N/A   Clear
6:56 PM 15.8 °F 3.4 °F 3.2 °F 58% 30.31 in 10.0 mi SE 10.4 mph 17.3 mph N/A   Clear
7:16 PM 15.8 °F 3.4 °F 3.2 °F 58% 30.32 in 10.0 mi SE 10.4 mph - N/A   Clear
7:36 PM 15.8 °F 4.2 °F 3.2 °F 58% 30.32 in 10.0 mi SE 9.2 mph - N/A   Clear
7:56 PM 15.8 °F 5.1 °F 3.2 °F 58% 30.33 in 10.0 mi SE 8.1 mph 16.1 mph N/A   Clear
8:16 PM 15.8 °F 3.4 °F 3.2 °F 58% 30.33 in 10.0 mi SE 10.4 mph - N/A   Mostly Cloudy
8:36 PM 15.8 °F 4.2 °F 3.2 °F 58% 30.33 in 10.0 mi SE 9.2 mph 16.1 mph N/A   Overcast
8:56 PM 15.8 °F 7.2 °F 3.2 °F 58% 30.34 in 10.0 mi SE 5.8 mph - N/A   Overcast
9:16 PM 15.8 °F 8.6 °F 1.4 °F 53% 30.34 in 10.0 mi SE 4.6 mph - N/A   Overcast
9:36 PM 15.8 °F - 5.0 °F 62% 30.35 in 10.0 mi Calm Calm - N/A   Overcast
9:56 PM 15.8 °F - 3.2 °F 58% 30.36 in 10.0 mi Calm Calm - N/A   Overcast
10:16 PM 15.8 °F 10.2 °F 3.2 °F 58% 30.36 in 10.0 mi South 3.5 mph - N/A   Overcast
10:36 PM 15.8 °F 10.2 °F 5.0 °F 62% 30.35 in 10.0 mi SW 3.5 mph - N/A   Overcast
10:56 PM 15.8 °F 8.6 °F 3.2 °F 58% 30.36 in 10.0 mi NNE 4.6 mph - N/A   Overcast
11:16 PM 15.8 °F - 3.2 °F 58% 30.37 in 10.0 mi Calm Calm - N/A   Overcast
11:36 PM 15.8 °F 8.6 °F 3.2 °F 58% 30.37 in 10.0 mi North 4.6 mph - N/A   Overcast
11:56 PM 15.8 °F 8.6 °F 3.2 °F 58% 30.37 in 10.0 mi NNE 4.6 mph - N/A   Overcast